Location: Peterborough
(44.3091°N, 78.3197°W)
Time: 03:30:37
(UTC-04:00)

S-56A Canister/Altair - Pass Details

Date: 27 March 2023
Orbit: 639 x 2492 km, 38.9° (Epoch: 08 June)

Event Time Altitude Azimuth Distance (km) Brightness Sun altitude
Rises 18:44:14 0° 221° (SW) 4,526 12.2 8.1°
Reaches altitude 10° 18:47:04 10° 214° (SW) 3,783 11.7 7.6°
Maximum altitude 18:56:39 44° 147° (SSE) 2,620 10.1 5.9°
Drops below altitude 10° 19:09:30 10° 83° (E) 5,044 11.1 3.6°
Sets 19:13:56 0° 78° (ENE) 6,144 11.5 2.8°
